Portada
METAR-TAF:

METAR-TAF

Aeropuertos :

Gonabad, Irán

latitud: 34-22-51N, longitud: 58-38-23E, altitud: 1100 m

Observación

El informe se hizo hace 1 hora y 9 minutos, a las 10:00 UTC
Viento 12 kt del sur-sureste
Temperatura 20°C
Humedad 32%
Presión 1016 hPa

METAR: OIMD 231000Z AUTO 15012KT //// // ////// 20/03 Q1016

Hora: 14:39 (11:09 UTC)


TAF: falta

Observaciones y pronósticos meteorológicos de más de 4000 aeropuertos (mensajes METAR y TAF).

Los puntos amarillos y rojos representan las estaciones disponibles.

Ponga el ratón en el punto deseado para ver el nombre de la estación.

Haga clic para ver las observaciones y los pronósticos meteorológicos.

Para cambiar el mapa : haga clic en los botones verdes con una cruz de color negro para hacer un zoom, en el botón verde con un guión para alejar o en las flechas verdes para mapas adyacentes.


METAR-TAF: